Flag for U.S.A. Weather past 2 weeks in Beaumont, Texas, U.S.A.

Now
52 °F

Clear.


Feels Like: 48 °F
Forecast: 44 / 60 °F
Wind: 10 mph from Northeast

Location: Jefferson County Airport

Current Time: Dec 20, 2014 at 9:51:01 PM

Latest Report: Dec 20, 2014 at 8:53 PM


Visibility: 10 mi

Pressure: 30.16 "Hg

Humidity: 83%

Dew point: 47 °F

Location of BeaumontLocation

Historic Weather in Beaumont — Graph

°F

Beaumont temperature yesterday

Maximum temperature yesterday: 60 °F (at 4:53 AM)
Minimum temperature yesterday: 50 °F (at 11:53 PM)
Average temperature yesterday: 57 °F

Past Weeks' High & Low Weather Summary

 TemperatureHumidityPressure
High80 °F (Dec 15, 12:53 PM)100% (Dec 6, 12:53 AM)30.35 "Hg (Dec 6, 12:53 AM)
Low41 °F (Dec 9, 6:53 AM)34% (Dec 16, 12:53 PM)29.91 "Hg (Dec 15, 1:53 PM)
Average59 °F79%30.18 "Hg
* Reported Dec 5 7:53 PM — Dec 20 7:53 PM, Beaumont, Weather by CustomWeather, © 2014

Note: Actual official high and low records may vary slightly from our data, if they occured in-between our weather recording intervals... More about our weather records

Advertising

Beaumont weather history for previous 24 hours

 ConditionsComfort  
Time TempWeatherWind HumidityBarometerVisibility
7:53 PM
Dec 20
53 °FClear.7 mph83%30.15 "Hg10 mi
6:53 PM53 °FPassing clouds.7 mph86%30.15 "Hg10 mi
5:53 PM52 °FClear.3 mph86%30.13 "Hg10 mi
4:53 PM57 °FSunny.6 mph74%30.13 "Hg10 mi
3:53 PM59 °FSunny.9 mph69%30.11 "Hg10 mi
3:00 PM58 °FPassing clouds.10 mph72%30.12 "Hg10 mi
1:53 PM56 °FOvercast.10 mph77%30.13 "Hg10 mi
12:53 PM53 °FLow clouds.13 mph86%30.14 "Hg10 mi
11:53 AM53 °FLow clouds.10 mph86%30.18 "Hg10 mi
10:53 AM52 °FLow clouds.10 mph89%30.20 "Hg10 mi
9:53 AM52 °FLow clouds.8 mph89%30.20 "Hg10 mi
8:53 AM51 °FLow clouds.6 mph96%30.18 "Hg8 mi
7:53 AM50 °FFog.10 mph96%30.16 "Hg5 mi
6:53 AM50 °FFog.10 mph93%30.15 "Hg3 mi
5:53 AM50 °FFog.10 mph93%30.14 "Hg3 mi
4:53 AM50 °FLow clouds.13 mph93%30.12 "Hg10 mi
3:53 AM50 °FLow clouds.13 mph93%30.12 "Hg10 mi
2:53 AM50 °FLow clouds.15 mph93%30.11 "Hg10 mi
1:53 AM50 °FLow clouds.12 mph96%30.11 "Hg10 mi
12:53 AM50 °FFog.13 mph96%30.10 "Hg4 mi
11:53 PM
Dec 19
50 °FFog.16 mph96%30.11 "Hg6 mi
10:53 PM51 °FLow clouds.14 mph92%30.10 "Hg8 mi
9:53 PM52 °FLow clouds.14 mph93%30.09 "Hg9 mi
9:00 PM52 °FLow clouds.15 mph97%30.09 "Hg10 mi
Weather by CustomWeather, © 2014

See weather overviewHow to use our weather pages